Regional Weather Roundup
Issued by NWS Glasgow, MT

Home | Current Version | Previous Version | Text Only | Print | Product List | Glossary On
Versions: 1 2 3 4 5 6 7 8 9 10 11 12 13 14 15 16 17 18 19 20 21 22 23 24 25 26 27 28 29 30 31 32 33 34 35 36 37 38 39 40 41 42 43 44 45 46 47 48 49 50
000
ASUS45 KGGW 221815
RWRGGW
HOURLY WEATHER ROUNDUP FOR NORTHEAST MONTANA
NATIONAL WEATHER SERVICE GLASGOW MONTANA
1100 AM MST MON DEC 22 2014

NOTE: "FAIR" INDICATES FEW OR NO CLOUDS BELOW 12,000 FEET WITH NO
SIGNIFICANT WEATHER AND/OR OBSTRUCTIONS TO VISISBILITY.

NORTHEAST MONTANA


CITY           SKY/WX    TMP DP  RH WIND       PRES   REMARKS
GLASGOW        CLOUDY    31  26  82 NW16      29.70R
6HR MIN TEMP:  30; 6HR MAX TEMP:  32;

PLENTYWOOD       N/A     26  25  96 N15         N/A
WOLF POINT     LGT SNOW  29  23  78 NW10      29.70R
JORDAN           N/A     34  27  75 NW22G30   29.73R
WINNETT          N/A     39  25  57 W17         N/A
SIDNEY         CLOUDY    27  21  80 NW16      29.65R
GLENDIVE       CLOUDY    27  23  86 NW24G35   29.64R
MALTA            N/A     32  28  85 W9          N/A
SCOBEY           N/A     23  16  74 W18G24    29.66R

FORT PECK REPORTS


CITY           SKY/WX    TMP DP  RH WIND       PRES   REMARKS
FORT PECK        N/A     31  27  85 NW23G33     N/A
THE PINES        N/A     34  28  79 NW12G21     N/A

SOUTHEAST MONTANA


CITY           SKY/WX    TMP DP  RH WIND       PRES   REMARKS
BILLINGS       CLOUDY    37  26  64 NW22      29.80R
MILES CITY     CLOUDY    37  27  67 NW31G38   29.68R
BAKER          LGT SNOW  30  29  96 NW26G32   29.58S VSB 3/4
LIVINGSTON     PTSUNNY   35  22  58 W22       29.86R

CENTRAL MONTANA


CITY           SKY/WX    TMP DP  RH WIND       PRES   REMARKS
HAVRE          CLOUDY    33  26  75 SW10      29.84R
LEWISTOWN      CLOUDY    36  22  56 NW10      29.82R
GREAT FALLS    CLOUDY    37  24  59 W15       29.85R
CUT BANK       CLOUDY    35  24  64 W14       29.87R
HELENA         CLOUDY    38  22  52 W15       29.91R
BUTTE          CLOUDY    28  23  81 W8        29.95R
BOZEMAN        CLOUDY    33  25  72 CALM      29.92R

WESTERN MONTANA


CITY           SKY/WX    TMP DP  RH WIND       PRES   REMARKS
MISSOULA       CLOUDY    38  26  62 NW9G20    30.04R
KALISPELL      NOT AVBL

NORTH DAKOTA


CITY           SKY/WX    TMP DP  RH WIND       PRES   REMARKS
WILLISTON      CLOUDY    26  22  84 N17       29.62R
DICKINSON      LGT SNOW  27  23  85 NW18G25   29.51R VSB 1
MINOT          CLOUDY    29  26  89 N8        29.55R
BISMARCK       CLOUDY    29  27  92 N6        29.50S

SOUTHERN SASKATCHEWAN


CITY           SKY/WX    TMP DP  RH WIND       PRES   REMARKS
REGINA         NOT AVBL
ESTEVAN        FOG       28  28 100 N6        29.60R VSB 1
SWIFT CURRENT  LGT SNOW  21  19  93 NW20      29.72R



USA.gov is the U.S. government's official web portal to all federal, state and local government web resources and services.